Waarnemingen

Advertentie
Mijn weer
Malilla, Zweden (2565): temperatuur & dauwpunt: 12.01.2021 11:00:00 - 18.01.2021 11:00:00 (CET)Malilla, Zweden (2565): windsnelheid & windstoten: 12.01.2021 11:00:00 - 18.01.2021 11:00:00 (CET)Malilla, Zweden (2565): windrichting: 12.01.2021 11:00:00 - 18.01.2021 11:00:00 (CET)Malilla, Zweden (2565): luchtdruk: 12.01.2021 11:00:00 - 18.01.2021 11:00:00 (CET)Malilla, Zweden (2565): zicht: 12.01.2021 11:00:00 - 18.01.2021 11:00:00 (CET)Malilla, Zweden (2565): neerslag: 12.01.2021 11:00:00 - 18.01.2021 11:00:00 (CET)
Datum & Tijd tt [°C] td [°C] ff [km/u] ff [kn] fx [km/u] fx [kn] dd ppp [hPa] vv [km] rr [mm]
18.01.2021 11:00:00 - - - - - - - - - -
18.01.2021 10:00:00 -8,2 -9,3 4 2 5 3 ZW 1017,4 6 0,0
18.01.2021 09:00:00 -8,7 -9,6 5 3 6 3 Z 1017,6 4,5 0,0
18.01.2021 08:00:00 -6,4 -7,1 6 3 16 8 ZW 1017,4 10 0,0
18.01.2021 07:00:00 -5,2 -5,9 8 4 17 9 WZW 1017,3 12 0,0
18.01.2021 06:00:00 -4,7 -5,5 5 3 7 4 ZZW 1017,5 12 0,0
18.01.2021 05:00:00 -5,6 -6,1 0 0 7 4 N 1018,1 - 0,0
18.01.2021 04:00:00 -5,4 -5,9 3 2 6 4 ZZO 1018,2 11 0,0
18.01.2021 03:00:00 -4,7 -5,5 0 0 4 2 N 1018,7 13 0,0
18.01.2021 02:00:00 -4,2 -5,2 0 0 2 1 N 1019,1 15 0,0
18.01.2021 01:00:00 -4,3 -5,4 0 0 4 2 N 1019,3 13 0,0
18.01.2021 00:00:00 -4,3 -5,4 0 0 5 3 N 1019,8 17 0,0
17.01.2021 23:00:00 -4,1 -5,3 4 2 8 4 ZZW 1020,2 15 0,0
17.01.2021 22:00:00 -4,1 -5,5 4 2 8 4 ZZO 1020,3 14 0,0
17.01.2021 21:00:00 -4,2 -5,7 3 2 4 2 Z 1020,8 - 0,0
17.01.2021 20:00:00 -4,1 -5,6 3 2 6 3 ZZO 1021,2 14 0,0
17.01.2021 19:00:00 -3,9 -6,2 0 0 7 4 N 1021,3 13 0,0
17.01.2021 18:00:00 -3,8 -6,3 0 0 7 4 N 1021,4 12 0,0
17.01.2021 17:00:00 -3,9 -5,7 3 1 6 3 Z 1021,2 14 0,0
17.01.2021 16:00:00 -4,1 -6,4 3 2 5 3 Z 1021,1 10 0,0
17.01.2021 15:00:00 -3,0 -7,7 4 2 8 5 WZW 1021,2 13 0,0
17.01.2021 14:00:00 -1,6 -7,9 5 3 7 4 OZO 1020,9 15 0,0
17.01.2021 13:00:00 -1,0 -7,4 4 2 6 4 ZO 1021,0 17 0,0
17.01.2021 12:00:00 0,6 -5,6 0 0 2 1 N 1021,3 20 0,0
17.01.2021 11:00:00 -0,7 -4,6 2 1 4 2 ZW 1021,6 15 0,0
17.01.2021 10:00:00 -2,9 -4,3 0 0 3 1 N 1021,4 - 0,0
17.01.2021 09:00:00 -4,3 -4,8 2 1 6 3 ONO 1021,0 10 0,0
17.01.2021 08:00:00 -4,4 -4,9 0 0 4 2 N 1020,8 10 0,0
17.01.2021 07:00:00 -4,4 -4,9 3 1 3 2 WZW 1020,4 11 0,0
17.01.2021 06:00:00 -4,3 -4,8 2 1 4 2 NO 1020,1 - 0,0
17.01.2021 05:00:00 -4,1 -4,6 2 1 6 3 NNO 1020,0 11 0,0
17.01.2021 04:00:00 -4,2 -4,7 0 0 4 2 N 1020,1 10 0,0
17.01.2021 03:00:00 -4,2 -4,7 0 0 2 1 N 1020,3 10 0,0
17.01.2021 02:00:00 -4,1 -4,8 0 0 4 2 N 1020,4 - 0,0
17.01.2021 01:00:00 -3,8 -4,6 2 1 5 3 NNO 1020,4 12 0,0
17.01.2021 00:00:00 -3,6 -4,4 2 1 5 3 NO 1020,2 11 0,0
16.01.2021 23:00:00 -3,5 -4,3 3 2 8 4 N 1020,2 13 0,0
16.01.2021 22:00:00 -3,5 -4,3 4 2 8 5 NNO 1020,2 14 0,0
16.01.2021 21:00:00 -3,5 -4,5 2 1 6 3 NNO 1020,1 2,3 0,1
16.01.2021 20:00:00 -3,4 -4,5 4 2 10 5 N 1020,0 14 0,0
16.01.2021 19:00:00 -3,4 -4,4 5 3 12 6 N 1020,0 12 0,0
16.01.2021 18:00:00 -3,4 -4,4 9 5 18 10 NNW 1020,0 12 0,0
16.01.2021 17:00:00 -3,2 -4,5 9 5 19 11 N 1020,0 15 0,0
16.01.2021 16:00:00 -3,0 -4,3 10 6 23 12 N 1020,0 14 0,0
16.01.2021 15:00:00 -2,6 -4,0 12 7 - - N 1019,5 17 0,0
16.01.2021 14:00:00 -2,2 -3,9 9 5 22 12 N 1019,4 18 0,0
16.01.2021 13:00:00 -2,5 -4,2 10 6 21 11 NNW 1019,3 13 0,0
16.01.2021 12:00:00 -2,7 -4,7 13 7 23 12 NW 1019,6 15 0,0
16.01.2021 11:00:00 -3,2 -5,5 7 4 16 9 NNW 1020,1 16 0,0
16.01.2021 10:00:00 -4,2 -5,7 5 3 13 7 WNW 1020,4 16 0,0
16.01.2021 09:00:00 -4,9 -6,6 7 4 17 9 NW 1020,4 15 0,0
16.01.2021 08:00:00 -5,1 -7,1 8 4 19 11 W 1020,7 14 0,0
16.01.2021 07:00:00 -5,9 -7,7 6 3 16 9 W 1021,0 11 0,0
16.01.2021 06:00:00 -6,9 -8,1 5 3 13 7 WZW 1021,1 11 0,0
16.01.2021 05:00:00 -7,5 -8,6 8 5 16 9 WZW 1021,8 18 0,0
16.01.2021 04:00:00 -9,3 -10,4 9 5 14 8 W 1022,3 11 0,0
16.01.2021 03:00:00 -11,1 -12,3 8 4 11 6 W 1023,0 13 0,0
16.01.2021 02:00:00 -11,1 -12,4 6 4 14 8 W 1023,8 12 0,0
16.01.2021 01:00:00 -10,7 -11,9 9 5 13 7 W 1024,6 - 0,0
16.01.2021 00:00:00 -14,0 -15,4 2 1 4 2 Z 1025,3 8 0,0
15.01.2021 23:00:00 -15,3 -16,8 2 1 3 2 O 1025,8 9 0,0
15.01.2021 22:00:00 -15,3 -17,0 0 0 3 2 N 1026,0 10 0,0
15.01.2021 21:00:00 -14,7 -16,1 0 0 4 2 N 1025,9 4,2 0,0
15.01.2021 20:00:00 -13,9 -15,3 0 0 7 4 N 1026,2 10 0,0
15.01.2021 19:00:00 -12,0 -13,0 8 4 9 5 W 1026,0 9 0,0
15.01.2021 18:00:00 -12,6 -13,8 3 2 8 4 WNW 1026,0 11 0,0
15.01.2021 17:00:00 -12,0 -13,2 2 1 11 6 W 1025,8 13 0,0
15.01.2021 16:00:00 -9,2 -10,7 4 2 10 6 NNW 1025,4 13 0,0
15.01.2021 15:00:00 -8,1 -10,5 6 3 16 9 NNW 1025,3 14 0,0
15.01.2021 14:00:00 -8,3 -10,8 8 4 15 8 NNW 1025,4 13 0,0
15.01.2021 13:00:00 -8,7 -11,2 8 4 15 8 NNW 1025,6 13 0,0
15.01.2021 12:00:00 -9,4 -11,9 8 4 13 7 NW 1025,8 12 0,0
15.01.2021 11:00:00 -9,3 -11,6 6 3 12 6 NW 1025,8 15 0,0
15.01.2021 10:00:00 -9,9 -11,9 7 4 13 7 NNW 1025,6 13 0,0
15.01.2021 09:00:00 -10,7 -12,2 4 2 10 5 N 1025,1 11 0,0
15.01.2021 08:00:00 -11,6 -12,6 5 3 11 6 NNW 1024,8 - 0,0
15.01.2021 07:00:00 -13,1 -14,4 4 2 9 5 NW 1024,7 9 0,0
15.01.2021 06:00:00 -10,6 -11,9 5 3 13 7 N 1024,5 9 0,0
15.01.2021 05:00:00 -9,9 -11,5 6 3 13 7 N 1024,2 12 0,0
15.01.2021 04:00:00 -9,0 -10,8 7 4 15 8 NNW 1024,0 10 0,0
15.01.2021 03:00:00 -8,6 -10,2 7 4 17 9 NNW 1023,9 9 0,0
15.01.2021 02:00:00 -8,3 -9,9 8 5 15 8 NNW 1023,8 11 0,0
15.01.2021 01:00:00 -8,4 -9,9 8 5 17 9 NNW 1023,9 10 0,0
15.01.2021 00:00:00 -8,4 -9,9 6 4 15 8 NNW 1023,9 12 0,0
14.01.2021 23:00:00 -7,8 -9,2 6 3 23 12 N 1023,8 13 0,0
14.01.2021 22:00:00 -7,2 -8,6 8 4 18 10 NNW 1023,6 15 0,0
14.01.2021 21:00:00 -5,7 -7,3 9 5 23 13 N 1023,5 14 0,0
14.01.2021 20:00:00 -4,6 -6,3 11 6 25 14 N 1022,9 11 0,0
14.01.2021 19:00:00 -4,2 -6,0 13 7 27 15 N 1022,7 13 0,0
14.01.2021 18:00:00 -3,7 -5,5 15 8 25 14 N 1022,6 8 0,0
14.01.2021 17:00:00 -3,3 -5,0 13 7 25 14 N 1022,2 9 0,0
14.01.2021 16:00:00 -3,1 -4,8 13 7 26 14 N 1022,1 11 0,1
14.01.2021 15:00:00 -2,7 -4,6 14 8 24 13 N 1021,5 14 0,0
14.01.2021 14:00:00 -2,3 -4,2 13 7 25 13 N 1021,1 12 0,0
14.01.2021 13:00:00 -2,4 -4,1 8 4 35 19 N 1020,9 14 0,0
14.01.2021 12:00:00 -2,0 -3,9 16 9 31 17 N 1020,8 12 0,0
14.01.2021 11:00:00 -1,8 -3,2 20 11 38 21 N 1020,3 14 0,0
14.01.2021 10:00:00 -1,4 -2,7 18 10 31 17 NNO 1019,7 12 0,0
14.01.2021 09:00:00 -1,3 -2,4 18 10 36 20 N 1019,0 12 0,0
14.01.2021 08:00:00 -1,1 -2,2 20 11 40 21 N 1018,0 12 0,0
14.01.2021 07:00:00 -0,8 -1,4 19 10 33 18 N 1016,6 7 0,1
14.01.2021 06:00:00 -0,5 -0,6 19 10 39 21 N 1015,7 4,0 0,2
14.01.2021 05:00:00 0,2 0,1 14 7 25 13 N 1014,7 8 0,6
14.01.2021 04:00:00 0,1 0,0 11 6 22 12 NNO 1013,5 5 0,8
14.01.2021 03:00:00 0,4 0,3 14 8 26 14 N 1012,6 4,0 0,3
14.01.2021 02:00:00 0,2 -0,1 11 6 24 13 N 1011,7 2,3 0,3
14.01.2021 01:00:00 0,1 -0,2 14 8 27 15 N 1010,8 4,2 0,3
14.01.2021 00:00:00 0,1 -0,3 15 8 27 15 N 1009,8 2,6 0,0
13.01.2021 23:00:00 0,1 -0,8 15 8 31 17 N 1008,9 4,5 0,0
13.01.2021 22:00:00 0,3 -0,7 12 7 28 15 N 1008,2 12 0,0
13.01.2021 21:00:00 0,1 -0,6 11 6 21 12 N 1007,4 12 0,0
13.01.2021 20:00:00 -0,2 -0,9 11 6 21 12 N 1006,8 12 0,0
13.01.2021 19:00:00 -0,6 -1,2 11 6 26 14 N 1006,2 13 0,0
13.01.2021 18:00:00 -1,1 -1,5 15 8 28 15 NNO 1005,6 14 0,0
13.01.2021 17:00:00 -2,0 -2,6 13 7 23 13 NNO 1004,9 14 0,0
13.01.2021 16:00:00 -1,9 -2,2 7 4 21 12 NNO 1004,2 11 0,0
13.01.2021 15:00:00 -0,9 -1,0 6 3 16 8 NO 1003,5 16 0,3
13.01.2021 14:00:00 -1,3 -1,4 6 3 16 9 NNO 1003,1 7 -
13.01.2021 13:00:00 -2,2 -2,3 4 2 16 9 NO 1002,7 11 0,1
13.01.2021 12:00:00 -3,1 -3,4 8 4 14 8 NNO 1002,9 4,9 0,0
13.01.2021 11:00:00 -2,9 -3,2 6 3 12 7 NNO 1002,8 0,5 0,2
13.01.2021 10:00:00 -3,5 -3,8 3 1 4 2 NNW 1002,3 0,4 0,0
13.01.2021 09:00:00 -4,2 -4,6 3 2 7 4 NW 1001,8 10 0,0
13.01.2021 08:00:00 -4,9 -5,3 3 2 6 3 N 1001,2 0,3 0,0
13.01.2021 07:00:00 -5,3 -5,8 2 1 9 5 NNO 1000,7 - 0,0
13.01.2021 06:00:00 -5,6 -6,1 2 1 5 3 O 1000,4 0,3 0,0
13.01.2021 05:00:00 -6,3 -7,0 2 1 9 5 O 999,8 6 0,0
13.01.2021 04:00:00 -7,5 -8,2 4 2 6 3 W 999,6 0,2 0,0
13.01.2021 03:00:00 -7,9 -8,7 2 1 3 2 ONO 999,2 13 0,0
13.01.2021 02:00:00 -6,8 -7,5 4 2 10 5 WZW 999,0 12 0,0
13.01.2021 01:00:00 -5,8 -6,5 2 1 7 4 ONO 998,4 15 0,0
13.01.2021 00:00:00 -4,3 -4,7 5 3 9 5 ZZO 998,3 14 0,0
12.01.2021 23:00:00 -7,0 -7,7 0 0 5 3 N 998,2 - 0,0
12.01.2021 22:00:00 -6,8 -7,5 2 1 4 2 NO 997,6 10 0,0
12.01.2021 21:00:00 -6,2 -6,7 2 1 5 3 ONO 997,1 10 0,0
12.01.2021 20:00:00 -4,6 -5,0 2 1 5 3 NO 996,7 14 0,0
12.01.2021 19:00:00 -3,6 -4,3 0 0 10 6 N 996,2 17 0,0
12.01.2021 18:00:00 -2,3 -3,3 6 3 14 7 Z 995,9 13 0,0
12.01.2021 17:00:00 -1,4 -2,8 7 4 13 7 ZZO 995,7 17 0,0
12.01.2021 16:00:00 -1,7 -3,4 7 4 14 8 ZZO 995,4 19 0,0
12.01.2021 15:00:00 -0,7 -3,4 8 4 20 11 ZZW 995,2 19 0,0
12.01.2021 14:00:00 -0,1 -3,3 10 5 22 12 ZW 995,0 16 0,0
12.01.2021 13:00:00 -0,5 -3,9 11 6 21 12 ZW 995,0 14 0,0
12.01.2021 12:00:00 -0,8 -4,5 12 6 22 12 WZW 995,2 15 0,0
12.01.2021 11:00:00 -1,4 -4,7 16 9 27 15 W 995,0 16 0,0

tt = temperatuur
td = dauwpunt
ff = windsnelheid
fx = windstoten
dd = windrichting
ppp = luchtdruk
vv = zicht
rr = neerslag

Weerstations in de omgeving